Morristown, NJ

2:40 PM EDT on October 21, 2019 (GMT -0400)
Morristown Municipal

Weather History for KMMU - September, 2019

Change the Weather History Date:

Sunday, September 22, 2019

  Actual Average Record
Temperature  
Mean Temperature 66 °F -  
Max Temperature 87 °F 73 °F 92 °F (1931)
Min Temperature 46 °F 51 °F 35 °F (1997)
Cooling Degree Days 2    
Growing Degree Days 16 (Base 50)    
Moisture  
Dew Point 57 °F    
Average Humidity 87    
Maximum Humidity 100    
Minimum Humidity 49    
Precipitation  
Precipitation 0.00 in - - ()
Sea Level Pressure  
Sea Level Pressure 30.12 in    
Wind  
Wind Speed 1 mph ()    
Max Wind Speed 10 mph    
Max Gust Speed 15 mph    
Visibility 6.6 miles    
Events Fog    
Averages and records for this station are not official NWS values.
T = Trace of Precipitation, MM = Missing Value Source: Averaged Metar Reports

Daily Weather History Graph

Daily Weather History Graph

Search for Another Location

Airport or City:

Astronomy

Sep. 22, 2019 Rise Set
Actual Time 6:44 AM EDT 6:55 PM EDT
Civil Twilight 6:17 AM EDT 7:22 PM EDT
Nautical Twilight 5:45 AM EDT 7:54 PM EDT
Astronomical Twilight 5:12 AM EDT 8:27 PM EDT
Moon No Moon Rise 2:50 PM EDT (9/22)
Length of Visible Light 13h 04m
Length of Day
12h 10m
Last Quarter, 44% of the Moon is Illuminated
Sep 22
Last Quarter
Sep 28
New
Oct 5
First Quarter
Oct 13
Full
Oct 21
Last Quarter

Hourly Weather History & Observations

Time (EDT) Temp. Heat Index Dew Point Humidity Pressure Visibility Wind Dir Wind Speed Gust Speed Precip Events Conditions
12:15 AM 51.8 °F - 51.8 °F 100% 30.19 in 4.0 mi Calm Calm - N/A   Clear
12:35 AM 51.8 °F - 51.8 °F 100% 30.18 in 0.5 mi Calm Calm - N/A Fog Fog
12:55 AM 51.8 °F - 51.8 °F 100% 30.18 in 0.2 mi Calm Calm - N/A Fog Fog
1:15 AM 51.8 °F - 51.8 °F 100% 30.18 in 1.0 mi Calm Calm - N/A   Mist
1:35 AM 51.8 °F - 51.8 °F 100% 30.18 in 4.0 mi Calm Calm - N/A   Clear
1:55 AM 50.0 °F - 50.0 °F 100% 30.18 in 0.5 mi Calm Calm - N/A Fog Fog
2:15 AM 50.0 °F - 50.0 °F 100% 30.18 in 0.2 mi Calm Calm - N/A Fog Fog
2:35 AM 50.0 °F - 50.0 °F 100% 30.18 in 0.5 mi Calm Calm - N/A Fog Fog
2:55 AM 48.2 °F - 48.2 °F 100% 30.18 in 7.0 mi Calm Calm - N/A   Overcast
3:15 AM 48.2 °F - 48.2 °F 100% 30.17 in 10.0 mi Calm Calm - N/A   Scattered Clouds
3:35 AM 50.0 °F - 50.0 °F 100% 30.17 in 10.0 mi Calm Calm - N/A   Scattered Clouds
3:55 AM 48.2 °F - 48.2 °F 100% 30.17 in 0.2 mi Calm Calm - N/A Fog Fog
4:15 AM 48.2 °F - 48.2 °F 100% 30.17 in 0.8 mi Calm Calm - N/A   Mostly Cloudy
4:35 AM 48.2 °F - 48.2 °F 100% 30.17 in 0.5 mi Calm Calm - N/A Fog Fog
4:55 AM 48.2 °F - 48.2 °F 100% 30.17 in 1.0 mi Calm Calm - N/A   Overcast
5:15 AM 48.2 °F - 48.2 °F 100% 30.17 in 5.0 mi Calm Calm - N/A   Clear
5:35 AM 46.4 °F - 46.4 °F 100% 30.17 in 3.0 mi Calm Calm - N/A   Clear
5:55 AM 46.4 °F - 46.4 °F 100% 30.17 in 0.2 mi Calm Calm - N/A Fog Fog
6:15 AM 48.2 °F - 48.2 °F 100% 30.17 in 0.5 mi Calm Calm - N/A Fog Fog
6:35 AM 46.4 °F - 46.4 °F 100% 30.17 in 10.0 mi Calm Calm - N/A   Scattered Clouds
6:45 AM 50.0 °F - 50.0 °F 100% 30.17 in 10.0 mi Calm Calm - N/A Fog Shallow Fog
7:50 AM 53.6 °F - 53.6 °F 100% 30.19 in 10.0 mi Calm Calm - N/A   Clear
8:45 AM 62.6 °F - 60.8 °F 94% 30.19 in 10.0 mi Calm Calm - N/A   Scattered Clouds
9:50 AM 69.8 °F - 62.6 °F 78% 30.18 in 10.0 mi Calm Calm - N/A   Scattered Clouds
10:45 AM 82.4 °F 83.9 °F 64.4 °F 54% 30.16 in 10.0 mi Calm Calm - N/A   Scattered Clouds
11:45 AM 82.4 °F 84.6 °F 66.2 °F 58% 30.14 in 10.0 mi WSW 6.9 mph - N/A   Scattered Clouds
12:41 PM 84.2 °F 86.6 °F 66.2 °F 55% 30.13 in 10.0 mi WSW 10.4 mph - N/A   Scattered Clouds
12:45 PM 84.2 °F 86.6 °F 66.2 °F 55% 30.13 in 10.0 mi WSW 10.4 mph - N/A   Scattered Clouds
1:45 PM 86.0 °F 88.2 °F 66.2 °F 51% 30.10 in 10.0 mi West 5.8 mph 15.0 mph N/A   Scattered Clouds
2:50 PM 87.8 °F 90.4 °F 66.2 °F 49% 30.07 in 10.0 mi SSW 6.9 mph - N/A   Scattered Clouds
3:50 PM 87.8 °F 90.4 °F 66.2 °F 49% 30.05 in 10.0 mi SSW 8.1 mph - N/A   Scattered Clouds
4:45 PM 87.8 °F 90.4 °F 66.2 °F 49% 30.03 in 10.0 mi SW 9.2 mph - N/A   Scattered Clouds
5:50 PM 86.0 °F 89.4 °F 68.0 °F 55% 30.02 in 10.0 mi SSW 6.9 mph - N/A   Clear
6:45 PM 82.4 °F 85.4 °F 68.0 °F 62% 30.03 in 10.0 mi SW 5.8 mph - N/A   Clear
7:46 PM 73.4 °F - 68.0 °F 83% 30.03 in 10.0 mi SSW 4.6 mph - N/A   Clear
8:46 PM 75.2 °F - 68.0 °F 78% 30.03 in 10.0 mi SW 5.8 mph - N/A   Clear
9:45 PM 73.4 °F - 68.0 °F 83% 30.03 in 10.0 mi SW 5.8 mph - N/A   Clear
10:35 PM 66.2 °F - 66.2 °F 100% 30.02 in 10.0 mi Calm Calm - N/A   Clear
10:55 PM 66.2 °F - 64.4 °F 94% 30.01 in 10.0 mi Calm Calm - N/A   Clear
11:15 PM 64.4 °F - 64.4 °F 100% 30.01 in 10.0 mi Calm Calm - N/A   Clear
11:35 PM 64.4 °F - 64.4 °F 100% 30.01 in 7.0 mi Calm Calm - N/A   Clear
11:55 PM 64.4 °F - 64.4 °F 100% 30.00 in 10.0 mi Calm Calm - N/A   Clear